TimeAEST,TemperatureF,Dew PointF,Humidity,Sea Level PressureIn,VisibilityMPH,Wind Direction,Wind SpeedMPH,Gust SpeedMPH,PrecipitationIn,Events,Conditions,WindDirDegrees,DateUTC
12:00 AM,47,42,76,30.21,,WNW,4.6,,,,,300,2013-07-31 14:00:00
12:00 AM,46.4,41.0,81,30.18,6.2,WNW,4.6,-,N/A,,Overcast,300,2013-07-31 14:00:00
12:30 AM,46.4,42.8,87,30.18,6.2,NW,4.6,-,N/A,,Overcast,310,2013-07-31 14:30:00
1:00 AM,46.4,41.0,81,30.18,6.2,NW,5.8,-,N/A,,Mostly Cloudy,320,2013-07-31 15:00:00
1:30 AM,44.6,41.0,87,30.18,6.2,NW,4.6,-,N/A,,Overcast,320,2013-07-31 15:30:00
2:00 AM,44.6,41.0,87,30.18,6.2,NW,5.8,-,N/A,,Overcast,320,2013-07-31 16:00:00
2:30 AM,42.8,39.2,87,30.18,6.2,North,4.6,-,N/A,,Mostly Cloudy,350,2013-07-31 16:30:00
3:00 AM,43,39,79,30.18,,NNW,5.8,,,,,330,2013-07-31 17:00:00
3:00 AM,42.8,39.2,87,30.18,6.2,NNW,5.8,-,N/A,,Mostly Cloudy,330,2013-07-31 17:00:00
3:30 AM,41.0,37.4,87,30.15,6.2,North,5.8,-,N/A,,Scattered Clouds,350,2013-07-31 17:30:00
4:00 AM,41.0,37.4,87,30.15,6.2,North,6.9,-,N/A,,Scattered Clouds,360,2013-07-31 18:00:00
4:30 AM,41.0,37.4,87,30.15,6.2,North,6.9,-,N/A,,Scattered Clouds,360,2013-07-31 18:30:00
5:00 AM,39.2,35.6,87,30.15,6.2,North,6.9,-,N/A,,Unknown,350,2013-07-31 19:00:00
5:30 AM,39.2,35.6,87,30.15,6.2,NNW,6.9,-,N/A,,Unknown,330,2013-07-31 19:30:00
6:00 AM,39,35,82,30.17,,NNW,5.8,,,,,330,2013-07-31 20:00:00
6:00 AM,39.2,35.6,87,30.15,6.2,NNW,5.8,-,N/A,,Unknown,330,2013-07-31 20:00:00
6:30 AM,39.2,35.6,87,30.15,6.2,NNW,5.8,-,N/A,,Unknown,340,2013-07-31 20:30:00
7:00 AM,39.2,33.8,81,30.18,6.2,North,8.1,-,N/A,,Mostly Cloudy,350,2013-07-31 21:00:00
7:30 AM,39.2,33.8,81,30.18,6.2,North,8.1,-,N/A,,Unknown,350,2013-07-31 21:30:00
8:00 AM,41.0,35.6,81,30.18,6.2,North,8.1,-,N/A,,Unknown,360,2013-07-31 22:00:00
8:30 AM,44.6,37.4,76,30.18,6.2,North,8.1,-,N/A,,Unknown,360,2013-07-31 22:30:00
9:00 AM,49,41,65,30.19,,North,6.9,,,,,0,2013-07-31 23:00:00
9:00 AM,48.2,41.0,76,30.18,6.2,North,6.9,-,N/A,,Unknown,360,2013-07-31 23:00:00
9:30 AM,51.8,39.2,62,30.18,6.2,NNW,9.2,-,N/A,,Unknown,330,2013-07-31 23:30:00
10:00 AM,53.6,37.4,54,30.18,6.2,NNW,10.4,-,N/A,,Unknown,340,2013-08-01 00:00:00
10:30 AM,55.4,37.4,51,30.15,6.2,NNW,13.8,-,N/A,,Unknown,330,2013-08-01 00:30:00
11:00 AM,55.4,37.4,51,30.15,6.2,NW,15.0,-,N/A,,Scattered Clouds,320,2013-08-01 01:00:00
11:30 AM,53.6,35.6,51,30.15,6.2,NNW,16.1,-,N/A,,Overcast,330,2013-08-01 01:30:00
12:00 PM,55.4,39.2,54,30.12,6.2,North,13.8,-,N/A,,Scattered Clouds,350,2013-08-01 02:00:00
12:30 PM,57.2,39.2,51,30.12,6.2,North,16.1,-,N/A,,Unknown,360,2013-08-01 02:30:00
1:00 PM,57.2,37.4,48,30.09,6.2,NNW,17.3,-,N/A,,Unknown,340,2013-08-01 03:00:00
1:30 PM,57.2,37.4,48,30.09,6.2,North,16.1,-,N/A,,Scattered Clouds,350,2013-08-01 03:30:00
2:00 PM,57.2,39.2,51,30.06,6.2,North,16.1,-,N/A,,Unknown,350,2013-08-01 04:00:00
2:30 PM,57.2,37.4,48,30.06,6.2,North,13.8,-,N/A,,Unknown,350,2013-08-01 04:30:00
3:00 PM,55,37,40,30.09,,North,12.7,,,,,350,2013-08-01 05:00:00
3:00 PM,55.4,37.4,51,30.06,6.2,North,12.7,-,N/A,,Scattered Clouds,350,2013-08-01 05:00:00
3:30 PM,55.4,39.2,54,30.06,6.2,North,8.1,-,N/A,,Mostly Cloudy,360,2013-08-01 05:30:00
4:00 PM,55.4,37.4,51,30.06,6.2,North,9.2,-,N/A,,Mostly Cloudy,350,2013-08-01 06:00:00
4:30 PM,55.4,39.2,54,30.06,6.2,North,12.7,-,N/A,,Mostly Cloudy,350,2013-08-01 06:30:00
5:00 PM,53.6,37.4,54,30.06,6.2,NW,9.2,-,N/A,,Unknown,320,2013-08-01 07:00:00
5:30 PM,50.0,37.4,62,30.06,6.2,NNW,8.1,-,N/A,,Scattered Clouds,330,2013-08-01 07:30:00
6:00 PM,50,37,51,30.09,,NW,9.2,,,,,320,2013-08-01 08:00:00
6:00 PM,50.0,37.4,62,30.06,6.2,NW,9.2,-,N/A,,Unknown,320,2013-08-01 08:00:00
6:30 PM,48.2,37.4,66,30.06,6.2,NNW,8.1,-,N/A,,Scattered Clouds,330,2013-08-01 08:30:00
7:00 PM,48.2,37.4,66,30.09,6.2,North,10.4,-,N/A,,Unknown,350,2013-08-01 09:00:00
7:30 PM,48.2,37.4,66,30.09,6.2,North,12.7,-,N/A,,Unknown,360,2013-08-01 09:30:00
8:00 PM,48.2,37.4,66,30.09,6.2,North,10.4,-,N/A,,Unknown,360,2013-08-01 10:00:00
8:30 PM,46.4,37.4,71,30.09,6.2,North,9.2,-,N/A,,Scattered Clouds,10,2013-08-01 10:30:00
9:00 PM,46,37,60,30.10,,North,11.5,,,,,10,2013-08-01 11:00:00
9:00 PM,46.4,37.4,71,30.09,6.2,North,11.5,-,N/A,,Scattered Clouds,10,2013-08-01 11:00:00
9:30 PM,44.6,35.6,71,30.06,6.2,North,12.7,-,N/A,,Unknown,10,2013-08-01 11:30:00
10:00 PM,44.6,37.4,76,30.06,6.2,North,12.7,-,N/A,,Unknown,10,2013-08-01 12:00:00
10:30 PM,44.6,37.4,76,30.06,6.2,North,13.8,-,N/A,,Unknown,10,2013-08-01 12:30:00
11:00 PM,42.8,35.6,76,30.04,6.2,North,11.5,-,N/A,,Unknown,10,2013-08-01 13:00:00
11:30 PM,44.6,35.6,71,30.04,6.2,NNE,12.7,-,N/A,,Unknown,20,2013-08-01 13:30:00